Location: Unspecified
(0.0000°N, 0.0000°E)
Time: 16:00:31
(UTC+02:00)

PROBA 2 - Visible Passes

Search period start: 25 September 2016 00:00
Search period end: 05 October 2016 00:00
Orbit: 705 x 726 km, 98.3° (Epoch: 25 September)

Date Brightness Start Highest point End Pass type
(mag) Time Alt. Az. Time Alt. Az. Time Alt. Az.
25 Sep ? 07:23:59 10° ESE 07:26:48 15° ENE 07:29:35 10° NE visible
25 Sep ? 21:25:25 10° NW 21:27:48 14° WNW 21:30:11 10° WSW visible
26 Sep ? 20:32:06 10° N 20:36:52 63° WNW 20:41:40 10° SSW visible
27 Sep ? 07:20:20 10° ESE 07:22:40 14° ENE 07:25:01 10° NE visible
27 Sep ? 21:20:51 10° NW 21:23:40 16° WNW 21:26:30 10° WSW visible
28 Sep ? 20:27:56 10° N 20:32:44 72° WNW 20:37:35 10° SSW visible
29 Sep ? 07:16:48 10° E 07:18:33 12° ENE 07:20:17 10° NE visible
29 Sep ? 21:16:22 10° NW 21:19:33 18° WNW 21:22:45 10° WSW visible
30 Sep ? 20:23:47 10° N 20:28:37 81° WNW 20:33:29 10° SSW visible
01 Oct ? 07:13:50 10° E 07:14:25 10° ENE 07:15:00 10° ENE visible
01 Oct ? 21:11:57 10° NNW 21:15:25 20° WNW 21:18:56 10° SW visible
02 Oct ? 20:19:39 10° NNE 20:24:29 89° E 20:29:23 10° SSW visible
03 Oct ? 21:07:34 10° NNW 21:11:18 22° WNW 21:15:04 10° SW visible
04 Oct ? 20:15:32 10° NNE 20:20:22 79° ESE 20:25:15 10° S visible
